Location: ??????????
(41.2581°N, 22.8006°E)
Time: 01:08:01
(UTC+00:00)

Spot 4 Rocket - Pass Details

Date: 13 December 2025
Orbit: 769 x 773 km, 98.8° (Epoch: 17 January)

Event Time Altitude Azimuth Distance (km) Brightness Sun altitude
Rises 17:03:52 0° 168° (SSE) 3,228 7.2 -22.4°
Reaches altitude 10° 17:06:10 10° 170° (S) 2,306 6.5 -22.9°
Maximum altitude 17:11:15 78° 256° (WSW) 794 4.1 -23.8°
Drops below altitude 10° 17:16:23 10° 343° (NNW) 2,326 6.6 -24.7°
Sets 17:18:42 0° 345° (NNW) 3,258 7.3 -25.2°
